Regional Weather Roundup
Issued by NWS

Home | Current Version | Previous Version | Graphics & Text | Print | Product List | Glossary On
Versions: 1 2 3 4 5 6 7 8 9 10 11 12 13 14 15 16 17 18 19 20 21 22 23 24 25 26 27 28 29 30 31 32 33 34 35 36 37 38 39 40 41 42 43 44 45 46 47 48 49 50
000
ASUS43 KBIS 011510
RWRND

NORTH DAKOTA REGIONAL WEATHER ROUNDUP
NATIONAL WEATHER SERVICE BISMARCK ND
1000 AM CDT SAT OCT 01 2016

NOTE: "FAIR" INDICATES FEW OR NO CLOUDS BELOW 12,000 FEET WITH NO
SIGNIFICANT WEATHER AND/OR OBSTRUCTIONS TO VISIBILITY.


NDZ001>003-009>011-017-011600-
NORTHWEST NORTH DAKOTA

CITY           SKY/WX    TMP DP  RH WIND       PRES   REMARKS
WILLISTON      SUNNY     56  48  74 CALM      29.98S
MINOT          SUNNY     56  49  77 SE10      30.01S
MINOT AFB      SUNNY     56  49  79 SE12      30.00S
$$

NDZ018>021-031>035-040>046-011600-
SOUTHWEST NORTH DAKOTA

CITY           SKY/WX    TMP DP  RH WIND       PRES   REMARKS
BISMARCK       SUNNY     59  47  64 SE13      30.03S
DICKINSON      SUNNY     54  47  77 S3        29.97S
GARRISON         N/A     59  48  67 VRB6      30.01R
HETTINGER ARPT SUNNY     56  47  71 SE3       30.00F
$$

NDZ004>008-012>016-024-026-027-054-011600-
NORTHEAST NORTH DAKOTA

CITY           SKY/WX    TMP DP  RH WIND       PRES   REMARKS
GRAND FORKS    CLOUDY    55  49  80 S8        30.15S
GRND FRKS AFB  CLOUDY    56  51  82 S10       30.14F
DEVILS LAKE    CLOUDY    58  49  72 SE15      30.10S
$$

NDZ022-023-025-028>030-036>039-047>053-011600-
SOUTHEAST NORTH DAKOTA

CITY           SKY/WX    TMP DP  RH WIND       PRES   REMARKS
FARGO          CLOUDY    58  51  78 S9        30.15S
JAMESTOWN      MOSUNNY   55  50  83 SE10      30.10S
$$




USA.gov is the U.S. government's official web portal to all federal, state and local government web resources and services.